Location: Waldport
(44.4270°N, 124.0680°W)
Time: 12:55:14
(UTC-07:00)

Amateur Radio Satellites - All Passes

Search period start: 29 June 2016 12:25
Search period end: 30 June 2016 12:25
Location: Waldport, 44.4270°N, 124.0680°W

Satellite Date Start Highest point End Downlink Frequencies (MHz)
Time Altitude Azimuth
RS-15 29 Jun 12:25:53 12:37:10 71° 118° (ESE) 12:49:07 29.354- 29.394
50 SAT 29 Jun 12:34:25 12:37:52 36° 98° (E) 12:41:16 437.505
CUBEBUG 1 29 Jun 12:37:34 12:41:40 40° 98° (E) 12:45:45 437.445
ISS 29 Jun 12:38:03 12:40:43 22° 4° (N) 12:43:23 145.825
JAS-2 29 Jun 12:41:19 12:48:49 67° 72° (ENE) 12:55:37 435.910
BUGSAT 1 29 Jun 12:42:55 12:46:54 67° 258° (WSW) 12:50:55 437.445
VELOX 1 29 Jun 12:48:09 12:52:25 48° 100° (E) 12:56:39 145.980
O/OREOS (USA 219) 29 Jun 12:50:33 12:55:03 78° 66° (ENE) 12:59:33 437.305
BEESAT 2 29 Jun 12:56:13 12:59:36 26° 245° (WSW) 13:02:56 435.950
NANOSAT C BR1 29 Jun 13:08:07 13:10:51 17° 268° (W) 13:13:37 145.865
QB50P1 29 Jun 13:12:06 13:14:31 15° 269° (W) 13:16:56 145.935-145.965
YUBILEINY 29 Jun 13:14:30 13:23:05 68° 93° (E) 13:31:47 435.215
POPSAT HIP 1 29 Jun 13:15:40 13:17:52 14° 270° (W) 13:20:05 437.405
SPROUT 29 Jun 13:23:15 13:27:27 52° 100° (E) 13:31:38 437.525
UKube-1 29 Jun 13:23:39 13:27:58 72° 103° (ESE) 13:32:16 .
Oscar 19 29 Jun 13:24:34 13:29:33 53° 71° (ENE) 13:34:34 437.125/150
Cosmos 2491 29 Jun 13:28:46 13:36:52 46° 273° (W) 13:44:59 435.465 / 435.565
AISAT 29 Jun 13:29:07 13:33:27 60° 287° (WNW) 13:37:46 437.250
ESTCUBE 1 29 Jun 13:29:21 13:33:34 40° 290° (WNW) 13:37:44 437.505/2401.250
DUCHIFAT 1 29 Jun 13:30:05 13:31:09 11° 271° (W) 13:32:13 145.980
Cosmos 2504 29 Jun 13:44:57 13:52:08 35° 83° (E) 13:59:43 435.465 / 435.565
DX 1 29 Jun 13:45:35 13:49:50 54° 288° (WNW) 13:54:03 434.975-435.025
AIST 2 29 Jun 13:46:03 13:50:11 61° 52° (NE) 13:54:18 435.215
Gurwin Techsat 1B 29 Jun 13:49:49 13:54:47 42° 68° (ENE) 13:59:46 435.225
ITAMSAT 1 29 Jun 13:51:20 13:54:41 18° 59° (ENE) 13:58:04 435.822/435.867
50 SAT 29 Jun 14:08:50 14:11:17 17° 295° (WNW) 14:13:42 437.505
CUBEBUG 1 29 Jun 14:14:30 14:17:42 21° 295° (WNW) 14:20:54 437.445
ISS 29 Jun 14:14:32 14:17:42 45° 23° (NNE) 14:20:52 145.825
VELOX 1 29 Jun 14:25:30 14:28:33 19° 297° (WNW) 14:31:35 145.980
BEESAT 29 Jun 14:26:48 14:29:07 13° 89° (E) 14:31:25 436.000
JAS-2 29 Jun 14:28:04 14:34:10 26° 267° (W) 14:39:55 435.910
ITUPSAT 1 29 Jun 14:28:29 14:30:54 14° 89° (E) 14:33:17 437.325
O/OREOS (USA 219) 29 Jun 14:32:32 14:33:46 11° 263° (W) 14:34:59 437.305
AO-7 29 Jun 14:35:36 14:42:48 34° 55° (NE) 14:50:01 29.400- 29.500
RS-15 29 Jun 14:39:31 14:50:32 45° 324° (NW) 15:02:09 29.354- 29.394
TISAT 1 29 Jun 14:39:40 14:43:54 90° 255° (WSW) 14:48:07 437.305
SO-50 29 Jun 15:00:07 15:02:22 13° 108° (ESE) 15:04:37 436.795
SPROUT 29 Jun 15:00:17 15:03:00 17° 297° (WNW) 15:05:43 437.525
UKube-1 29 Jun 15:01:29 15:03:27 13° 300° (WNW) 15:05:24 .
Oscar 19 29 Jun 15:05:26 15:09:11 20° 268° (W) 15:12:58 437.125/150
YUBILEINY 29 Jun 15:13:19 15:20:38 29° 295° (WNW) 15:28:03 435.215
AIST 2 29 Jun 15:25:51 15:28:12 15° 250° (WSW) 15:30:34 435.215
ITAMSAT 1 29 Jun 15:28:23 15:33:35 72° 257° (WSW) 15:38:50 435.822/435.867
Gurwin Techsat 1B 29 Jun 15:30:21 15:34:51 28° 266° (W) 15:39:23 435.225
Cosmos 2504 29 Jun 15:37:07 15:45:07 55° 285° (WNW) 15:53:42 435.465 / 435.565
SWISSCUBE 29 Jun 15:37:25 15:42:14 73° 102° (ESE) 15:47:01 437.505
ISS 29 Jun 15:51:09 15:54:03 29° 221° (SW) 15:56:55 145.825
BEESAT 29 Jun 16:02:37 16:07:25 72° 286° (WNW) 16:12:11 436.000
ITUPSAT 1 29 Jun 16:04:26 16:09:14 71° 287° (WNW) 16:14:00 437.325
AO-7 29 Jun 16:26:50 16:35:04 64° 256° (WSW) 16:43:25 29.400- 29.500
AIST 1 29 Jun 16:29:02 16:31:16 14° 84° (E) 16:33:31
MOZHAYETS 4 29 Jun 16:31:47 16:35:50 29° 95° (E) 16:39:50
KKS-1 29 Jun 16:33:08 16:37:05 30° 96° (E) 16:41:00 437.445
SO-50 29 Jun 16:37:16 16:42:11 87° 306° (NW) 16:47:05 436.795
RS-15 29 Jun 16:57:16 17:07:13 28° 358° (N) 17:17:24 29.354- 29.394
HORYU 2 29 Jun 16:57:43 17:02:03 57° 72° (ENE) 17:06:27 437.375
STARS 29 Jun 17:02:03 17:06:00 31° 97° (E) 17:09:55 437.465
NOAA 15 29 Jun 17:03:56 17:07:29 19° 59° (ENE) 17:11:01 137.62
SWISSCUBE 29 Jun 17:16:44 17:19:28 15° 300° (WNW) 17:22:11 437.505
GONETS M04 29 Jun 17:20:19 17:25:34 18° 76° (ENE) 17:30:49
LilacSat-2 29 Jun 17:34:05 17:36:09 14° 64° (ENE) 17:38:14 437.200
Cosmos 2504 29 Jun 17:37:49 17:40:56 12° 310° (NW) 17:44:08 435.465 / 435.565
Cubesat XI-IV 29 Jun 17:44:12 17:48:45 29° 64° (ENE) 17:53:20 437.490
BRITE-PL 29 Jun 17:46:53 17:51:22 35° 70° (ENE) 17:55:32 437.365/2234.400
NOAA 18 29 Jun 17:48:08 17:53:04 36° 65° (ENE) 17:58:02 137.9125
CUBESAT XI-V 29 Jun 18:02:35 18:06:40 30° 95° (E) 18:10:43 437.345
AIST 1 29 Jun 18:04:10 18:08:23 53° 281° (WNW) 18:12:36
MOZHAYETS 4 29 Jun 18:08:52 18:12:59 32° 292° (WNW) 18:17:03
KKS-1 29 Jun 18:09:46 18:13:34 28° 293° (WNW) 18:17:22 437.445
GOMX 1 29 Jun 18:14:45 18:18:38 29° 69° (ENE) 18:22:21 467.674
CUTE-I 29 Jun 18:17:20 18:22:32 55° 70° (ENE) 18:27:47 437.470
Cosmos 2499 29 Jun 18:18:04 18:24:57 29° 81° (E) 18:32:06 435.465 / 435.565
SO-50 29 Jun 18:20:00 18:23:22 18° 325° (NW) 18:26:44 436.795
AO-7 29 Jun 18:26:44 18:29:29 12° 276° (W) 18:32:14 29.400- 29.500
HO-68 29 Jun 18:31:42 18:36:17 19° 51° (NE) 18:40:53 435.675
CUSAT 1 29 Jun 18:35:06 18:38:36 37° 72° (ENE) 18:41:25 437.405
HORYU 2 29 Jun 18:36:28 18:38:59 15° 269° (W) 18:41:31 437.375
STARS 29 Jun 18:38:32 18:42:15 27° 294° (WNW) 18:45:58 437.465
NOAA 15 29 Jun 18:41:27 18:46:43 69° 257° (WSW) 18:52:00 137.62
CANX-2 29 Jun 18:53:48 18:54:24 10° 59° (ENE) 18:55:00 2200.000
LilacSat-2 29 Jun 19:06:25 19:10:04 47° 261° (W) 19:13:47 437.200
DOVE 4 29 Jun 19:08:17 19:12:22 45° 72° (ENE) 19:16:21 437.250
DANDE 29 Jun 19:09:03 19:13:49 40° 70° (ENE) 19:17:25 436.750
CUTE 1.7 + AOD 2 29 Jun 19:11:44 19:13:59 14° 62° (ENE) 19:16:14 437.475
GONETS M04 29 Jun 19:12:18 19:21:01 85° 97° (E) 19:29:45
RS-15 29 Jun 19:12:47 19:24:11 41° 32° (NNE) 19:35:37 29.354- 29.394
SEEDS 29 Jun 19:14:37 19:15:43 11° 60° (ENE) 19:16:48 437.485
Cubesat XI-IV 29 Jun 19:23:37 19:28:39 41° 262° (W) 19:33:44 437.490
BRITE-PL 29 Jun 19:25:39 19:29:53 27° 265° (W) 19:33:51 437.365/2234.400
NOAA 18 29 Jun 19:28:47 19:33:42 34° 263° (W) 19:38:42 137.9125
CUBESAT XI-V 29 Jun 19:40:00 19:44:01 30° 293° (WNW) 19:48:00 437.345
CUBEBUG 2 29 Jun 19:45:39 19:46:56 11° 59° (ENE) 19:48:13 437.445
AAUSAT CUBESAT 2 29 Jun 19:48:42 19:50:56 14° 62° (ENE) 19:53:10 437.432
GOMX 1 29 Jun 19:52:46 19:56:43 28° 264° (W) 20:00:29 467.674
STRAND 1 29 Jun 19:54:04 19:58:35 30° 95° (E) 20:03:03 437.568
CINEMA 3 29 Jun 19:54:26 19:58:19 40° 71° (ENE) 20:02:14 145.822/145.860
CUTE-I 29 Jun 19:58:56 20:02:56 21° 268° (W) 20:06:57 437.470
M-CUBED/EXP-1 PRIME 29 Jun 20:03:25 20:05:07 14° 58° (ENE) 20:06:49 437.505
Cosmos 2499 29 Jun 20:09:00 20:17:19 67° 282° (WNW) 20:26:10 435.465 / 435.565
Oscar 11 29 Jun 20:13:13 20:14:41 12° 60° (ENE) 20:16:09 145.826/435.025
HO-68 29 Jun 20:15:48 20:22:57 81° 71° (ENE) 20:30:10 435.675
COMPASS 1 29 Jun 20:22:10 20:26:04 37° 70° (ENE) 20:29:59 437.405
FUNcube-1 29 Jun 20:22:27 20:24:09 12° 60° (ENE) 20:25:52 145.935
CANX-2 29 Jun 20:25:15 20:29:33 90° 33° (NNE) 20:33:53 2200.000
UWE-3 29 Jun 20:27:59 20:31:10 21° 65° (ENE) 20:34:26 435.000/436.395/437.385
AO-85 29 Jun 20:30:50 20:33:28 14° 107° (ESE) 20:36:03 145.980
CUTE 1.7 + AOD 2 29 Jun 20:45:04 20:49:19 63° 260° (W) 20:53:36 437.475
SEEDS 29 Jun 20:46:29 20:50:45 84° 258° (WSW) 20:55:03 437.485
DOVE 4 29 Jun 20:47:36 20:50:19 16° 268° (W) 20:53:00 437.250
DANDE 29 Jun 20:53:03 20:55:56 16° 279° (W) 20:58:24 436.750
AUBIESAT-1 29 Jun 20:55:33 20:58:43 45° 67° (ENE) 21:01:57 437.475
GONETS M04 29 Jun 21:12:31 21:19:01 23° 299° (WNW) 21:25:33
CUBEBUG 2 29 Jun 21:18:42 21:22:53 80° 259° (W) 21:27:12 437.445
AAUSAT CUBESAT 2 29 Jun 21:21:47 21:25:56 60° 259° (W) 21:30:06 437.432
DELFI C3 29 Jun 21:22:40 21:26:00 25° 68° (ENE) 21:29:21 145.870
RS-15 29 Jun 21:25:46 21:38:09 83° 238° (WSW) 21:50:24 29.354- 29.394
CINEMA 3 29 Jun 21:32:51 21:35:41 18° 268° (W) 21:38:32 145.822/145.860
STRAND 1 29 Jun 21:33:04 21:37:47 37° 293° (WNW) 21:42:28 437.568
M-CUBED/EXP-1 PRIME 29 Jun 21:36:21 21:39:24 37° 256° (WSW) 21:42:30 437.505
ZACube-1 29 Jun 21:38:45 21:42:58 77° 76° (ENE) 21:47:19 437.345
Oscar 11 29 Jun 21:45:49 21:50:09 82° 255° (WSW) 21:54:33 145.826/435.025
FUNcube-1 29 Jun 21:55:34 21:59:46 74° 258° (WSW) 22:04:06 145.935
COMPASS 1 29 Jun 21:58:35 22:01:45 20° 267° (W) 22:04:56 437.405
UWE-3 29 Jun 22:03:29 22:07:24 37° 263° (W) 22:11:26 435.000/436.395/437.385
PRISM 29 Jun 22:04:54 22:09:00 83° 285° (WNW) 22:13:04 437.425
HO-68 29 Jun 22:06:27 22:11:26 20° 270° (W) 22:16:29 435.675
Cosmos 2499 29 Jun 22:07:36 22:12:26 16° 306° (NW) 22:17:24 435.465 / 435.565
AO-85 29 Jun 22:07:51 22:13:17 86° 124° (SE) 22:18:32 145.980
ANTELSAT 29 Jun 22:24:42 22:26:57 13° 89° (E) 22:29:10 437.575/2403.000
AUBIESAT-1 29 Jun 22:32:59 22:33:32 10° 264° (W) 22:34:06 437.475
HUMSAT D 29 Jun 22:39:15 22:43:26 83° 76° (ENE) 22:47:43 437.325/437.525
AISAT 29 Jun 22:53:20 22:56:06 17° 62° (ENE) 22:58:52 437.250
ESTCUBE 1 29 Jun 22:54:11 22:57:53 25° 66° (ENE) 23:01:35 437.505/2401.250
DELFI C3 29 Jun 22:57:16 23:00:46 28° 264° (W) 23:04:17 145.870
DX 1 29 Jun 23:07:58 23:10:51 18° 63° (ENE) 23:13:43 434.975-435.025
50 SAT 29 Jun 23:14:09 23:17:05 22° 67° (ENE) 23:20:02 437.505
TIGRISAT 29 Jun 23:14:12 23:18:35 39° 98° (E) 23:22:58 435.000
UNISAT 6 29 Jun 23:19:46 23:24:17 47° 99° (E) 23:28:48 437.425
YUBILEINY 29 Jun 23:22:44 23:30:46 37° 69° (ENE) 23:38:46 435.215
SO-50 29 Jun 23:27:34 23:31:18 23° 39° (NE) 23:34:57 436.795
CUBEBUG 1 29 Jun 23:34:56 23:39:01 42° 71° (ENE) 23:43:07 437.445
QB50P2 29 Jun 23:35:23 23:36:58 12° 89° (E) 23:38:34 145.880/145.840
Cosmos 2504 29 Jun 23:35:54 23:40:54 16° 54° (NE) 23:45:47 435.465 / 435.565
POLYITAN 1 29 Jun 23:37:53 23:39:37 12° 89° (E) 23:41:21 437.675
RS-15 29 Jun 23:40:03 23:48:47 24° 261° (W) 23:57:29 29.354- 29.394
VELOX 1 29 Jun 23:46:48 23:51:05 52° 72° (ENE) 23:55:22 145.980
AO-85 29 Jun 23:50:22 23:54:25 21° 323° (NW) 23:58:18 145.980
ANTELSAT 29 Jun 23:59:28 00:04:07 71° 286° (WNW) 00:08:48 437.575/2403.000
SPROUT 30 Jun 00:18:12 00:22:17 48° 72° (ENE) 00:26:23 437.525
UKube-1 30 Jun 00:19:26 00:23:44 74° 74° (ENE) 00:28:03 .
BUGSAT 1 30 Jun 00:24:06 00:26:30 15° 92° (E) 00:28:55 437.445
AISAT 30 Jun 00:27:50 00:32:09 55° 259° (W) 00:36:30 437.250
ESTCUBE 1 30 Jun 00:30:20 00:34:31 36° 263° (W) 00:38:43 437.505/2401.250
Cosmos 2491 30 Jun 00:35:02 00:43:13 46° 88° (E) 00:51:23 435.465 / 435.565
DX 1 30 Jun 00:42:26 00:46:39 50° 260° (W) 00:50:54 434.975-435.025
50 SAT 30 Jun 00:47:27 00:50:38 27° 264° (W) 00:53:52 437.505
NANOSAT C BR1 30 Jun 00:48:55 00:53:10 67° 102° (ESE) 00:57:23 145.865
TIGRISAT 30 Jun 00:51:18 00:55:04 25° 294° (WNW) 00:58:50 435.000
QB50P1 30 Jun 00:52:49 00:57:06 78° 104° (ESE) 01:01:21 145.935-145.965
POPSAT HIP 1 30 Jun 00:56:11 01:00:28 83° 101° (E) 01:04:45 437.405
UNISAT 6 30 Jun 00:57:12 01:00:40 21° 296° (WNW) 01:04:10 437.425
SO-50 30 Jun 01:07:34 01:12:11 62° 239° (WSW) 01:16:39 436.795
DUCHIFAT 1 30 Jun 01:08:44 01:12:59 80° 285° (WNW) 01:17:14 145.980
QB50P2 30 Jun 01:08:58 01:13:13 67° 287° (WNW) 01:17:28 145.880/145.840
SWISSCUBE 30 Jun 01:10:38 01:12:57 14° 58° (ENE) 01:15:17 437.505
POLYITAN 1 30 Jun 01:11:36 01:15:51 66° 287° (WNW) 01:20:06 437.675
CUBEBUG 1 30 Jun 01:12:21 01:15:29 19° 267° (W) 01:18:39 437.445
YUBILEINY 30 Jun 01:19:23 01:27:53 54° 270° (W) 01:36:22 435.215
PCSat 30 Jun 01:22:23 01:25:58 18° 105° (ESE) 01:29:34 145.827
VELOX 1 30 Jun 01:25:07 01:27:51 16° 269° (W) 01:30:35 145.980
Cosmos 2504 30 Jun 01:27:22 01:36:16 67° 78° (ENE) 01:44:45 435.465 / 435.565
TISAT 1 30 Jun 01:32:35 01:36:45 82° 74° (ENE) 01:40:56 437.305
BEESAT 30 Jun 01:34:23 01:37:49 20° 62° (ENE) 01:41:17 436.000
JAS-2 30 Jun 01:35:07 01:40:29 44° 98° (E) 01:45:27 435.910
Oscar 19 30 Jun 01:35:35 01:38:44 16° 90° (E) 01:41:52 437.125/150
ITUPSAT 1 30 Jun 01:36:25 01:39:56 21° 62° (ENE) 01:43:28 437.325
SPROUT 30 Jun 01:55:50 01:58:30 16° 269° (W) 02:01:11 437.525
BUGSAT 1 30 Jun 01:58:11 02:02:09 49° 288° (WNW) 02:06:08 437.445
UKube-1 30 Jun 01:59:13 02:00:18 11° 271° (W) 02:01:23 .
Gurwin Techsat 1B 30 Jun 02:05:45 02:08:28 14° 88° (E) 02:11:11 435.225
BEESAT 3 30 Jun 02:08:36 02:11:38 22° 114° (ESE) 02:14:42 437.485
NANOSAT C BR1 30 Jun 02:26:19 02:28:22 13° 299° (WNW) 02:30:25 145.865
QB50P1 30 Jun 02:30:43 02:32:16 12° 300° (WNW) 02:33:48 145.935-145.965
Cosmos 2491 30 Jun 02:31:55 02:40:06 43° 289° (WNW) 02:48:19 435.465 / 435.565
POPSAT HIP 1 30 Jun 02:34:23 02:35:37 11° 300° (WNW) 02:36:51 437.405
SWISSCUBE 30 Jun 02:45:17 02:50:05 83° 257° (WSW) 02:54:55 437.505
BEESAT 2 30 Jun 02:49:09 02:52:41 32° 117° (ESE) 02:56:17 435.950
PCSat 30 Jun 03:03:22 03:08:47 70° 304° (NW) 03:14:13 145.827
O/OREOS (USA 219) 30 Jun 03:04:17 03:08:43 66° 111° (ESE) 03:13:11 437.305
BEESAT 30 Jun 03:10:35 03:15:14 52° 260° (W) 03:19:56 436.000
ITUPSAT 1 30 Jun 03:12:45 03:17:25 51° 260° (W) 03:22:08 437.325
Oscar 19 30 Jun 03:13:26 03:18:32 66° 287° (WNW) 03:23:36 437.125/150
JAS-2 30 Jun 03:20:42 03:25:20 27° 298° (WNW) 03:29:41 435.910
Cosmos 2504 30 Jun 03:21:41 03:28:56 30° 279° (W) 03:35:58 435.465 / 435.565
KKS-1 30 Jun 03:32:40 03:36:40 34° 68° (ENE) 03:40:41 437.445
MOZHAYETS 4 30 Jun 03:35:05 03:39:13 33° 68° (ENE) 03:43:23
ITAMSAT 1 30 Jun 03:39:44 03:44:33 36° 97° (E) 03:49:19 435.822/435.867
Gurwin Techsat 1B 30 Jun 03:43:42 03:49:03 80° 285° (WNW) 03:54:22 435.225
BEESAT 3 30 Jun 03:45:26 03:49:06 38° 311° (NW) 03:52:50 437.485
STARS 30 Jun 04:00:12 04:04:07 34° 69° (ENE) 04:08:05 437.465
Cosmos 2499 30 Jun 04:08:24 04:11:34 12° 50° (NE) 04:14:40 435.465 / 435.565
AIST 1 30 Jun 04:09:21 04:13:24 41° 77° (ENE) 04:17:25
AO-7 30 Jun 04:26:35 04:34:24 41° 98° (E) 04:42:08 29.400- 29.500
BEESAT 2 30 Jun 04:27:06 04:30:33 28° 315° (NW) 04:34:02 435.950
O/OREOS (USA 219) 30 Jun 04:45:47 04:48:36 16° 310° (NW) 04:51:25 437.305
PCSat 30 Jun 04:49:53 04:53:11 16° 325° (NW) 04:56:30 145.827
AO-85 30 Jun 04:59:03 05:02:28 20° 36° (NE) 05:05:42 145.980
CUBESAT XI-V 30 Jun 05:07:14 05:11:31 36° 69° (ENE) 05:15:49 437.345
KKS-1 30 Jun 05:09:42 05:13:18 24° 265° (W) 05:16:55 437.445
MOZHAYETS 4 30 Jun 05:12:27 05:16:24 27° 265° (W) 05:20:23
ITAMSAT 1 30 Jun 05:19:19 05:23:56 32° 295° (WNW) 05:28:31 435.822/435.867
GONETS M04 30 Jun 05:20:36 05:28:56 47° 73° (ENE) 05:37:16
AIST 2 30 Jun 05:22:55 05:27:01 75° 121° (ESE) 05:31:09 435.215
Gurwin Techsat 1B 30 Jun 05:25:54 05:28:08 13° 304° (NW) 05:30:23 435.225
STARS 30 Jun 05:37:01 05:40:33 24° 265° (W) 05:44:06 437.465
AIST 1 30 Jun 05:47:51 05:50:39 17° 274° (W) 05:53:28
Cosmos 2499 30 Jun 05:58:33 06:07:09 54° 74° (ENE) 06:15:13 435.465 / 435.565
NOAA 18 30 Jun 06:10:13 06:12:26 12° 88° (E) 06:14:38 137.9125
AO-7 30 Jun 06:19:18 06:27:18 51° 298° (WNW) 06:35:15 29.400- 29.500
HORYU 2 30 Jun 06:23:12 06:27:44 89° 275° (W) 06:32:14 437.375
CUTE-I 30 Jun 06:33:35 06:37:22 19° 91° (E) 06:41:07 437.470
DANDE 30 Jun 06:37:52 06:40:48 12° 78° (ENE) 06:43:39 436.750
LilacSat-2 30 Jun 06:38:56 06:41:26 16° 92° (E) 06:43:55 437.200
AO-85 30 Jun 06:38:57 06:43:30 71° 238° (WSW) 06:47:38 145.980
CUBESAT XI-V 30 Jun 06:45:04 06:48:58 26° 266° (W) 06:52:53 437.345
NOAA 15 30 Jun 06:55:01 06:59:56 39° 98° (E) 07:04:49 137.62
AIST 2 30 Jun 07:03:16 07:05:59 17° 322° (NW) 07:08:44 435.215
DOVE 4 30 Jun 07:07:17 07:08:09 10° 89° (E) 07:09:02 437.250
STRAND 1 30 Jun 07:11:19 07:16:16 51° 70° (ENE) 07:21:16 437.568
PHONESAT 2.4 30 Jun 07:12:10 07:14:40 23° 162° (SSE) 07:17:11 2401.200-2431.200
GONETS M04 30 Jun 07:17:41 07:25:39 42° 274° (W) 07:33:39
BRITE-PL 30 Jun 07:27:36 07:31:47 83° 104° (ESE) 07:35:59 437.365/2234.400
CUSAT 1 30 Jun 07:35:18 07:42:45 58° 96° (E) 07:48:54 437.405
Cubesat XI-IV 30 Jun 07:38:39 07:44:03 70° 102° (ESE) 07:49:25 437.490
HO-68 30 Jun 07:44:25 07:47:30 13° 86° (E) 07:50:34 435.675
NOAA 18 30 Jun 07:48:15 07:53:51 87° 107° (ESE) 07:59:25 137.9125
GOMX 1 30 Jun 07:51:27 07:55:39 66° 101° (ESE) 08:00:02 467.674
Cosmos 2499 30 Jun 07:52:13 07:59:55 36° 276° (W) 08:07:14 435.465 / 435.565
HORYU 2 30 Jun 08:02:15 08:03:34 11° 302° (WNW) 08:04:53 437.375
CANX-2 30 Jun 08:10:09 08:12:28 14° 90° (E) 08:14:45 2200.000
LilacSat-2 30 Jun 08:12:16 08:15:55 40° 288° (WNW) 08:19:34 437.200
CUTE-I 30 Jun 08:12:31 08:17:50 61° 289° (WNW) 08:23:06 437.470
DANDE 30 Jun 08:14:14 08:22:27 61° 95° (E) 08:29:51 436.750
AO-7 30 Jun 08:14:27 08:18:08 14° 321° (NW) 08:21:50 29.400- 29.500
CUTE 1.7 + AOD 2 30 Jun 08:29:05 08:32:14 20° 92° (E) 08:35:22 437.475
SEEDS 30 Jun 08:30:10 08:32:32 14° 90° (E) 08:34:52 437.485
ISS 30 Jun 08:31:22 08:34:19 32° 140° (SE) 08:37:17 145.825
NOAA 15 30 Jun 08:35:04 08:39:34 30° 295° (WNW) 08:44:03 137.62
DOVE 4 30 Jun 08:41:59 08:46:20 79° 284° (WNW) 08:50:54 437.250
PHONESAT 2.4 30 Jun 08:48:01 08:50:54 39° 179° (S) 08:53:48 2401.200-2431.200
STRAND 1 30 Jun 08:51:50 08:55:44 22° 268° (W) 08:59:40 437.568
PRISM 30 Jun 08:55:27 08:59:37 87° 70° (ENE) 09:03:47 437.425
AAUSAT CUBESAT 2 30 Jun 09:03:15 09:06:11 18° 92° (E) 09:09:07 437.432
CUBEBUG 2 30 Jun 09:08:09 09:11:37 20° 92° (E) 09:15:07 437.445
CUSAT 1 30 Jun 09:18:41 09:25:00 29° 289° (WNW) 09:30:22 437.405
Cubesat XI-IV 30 Jun 09:19:57 09:23:33 19° 301° (WNW) 09:27:10 437.490
CINEMA 3 30 Jun 09:23:18 09:27:54 86° 106° (ESE) 09:32:41 145.822/145.860
ANTELSAT 30 Jun 09:25:38 09:27:55 14° 60° (ENE) 09:30:15 437.575/2403.000
ZACube-1 30 Jun 09:26:38 09:29:09 15° 90° (E) 09:31:41 437.345
HO-68 30 Jun 09:29:11 09:36:25 74° 105° (ESE) 09:43:36 435.675
NOAA 18 30 Jun 09:30:32 09:33:46 16° 304° (WNW) 09:37:00 137.9125
GOMX 1 30 Jun 09:31:23 09:33:18 13° 298° (WNW) 09:35:14 467.674
Oscar 11 30 Jun 09:32:30 09:35:16 16° 91° (E) 09:38:02 145.826/435.025
COMPASS 1 30 Jun 09:38:27 09:42:36 56° 100° (E) 09:46:41 437.405
FUNcube-1 30 Jun 09:42:27 09:45:48 20° 92° (E) 09:49:08 145.935
CANX-2 30 Jun 09:44:27 09:48:41 56° 286° (WNW) 09:52:51 2200.000
RS-15 30 Jun 09:49:28 09:51:58 11° 91° (E) 09:54:29 29.354- 29.394
UWE-3 30 Jun 09:50:47 09:55:05 37° 97° (E) 09:59:25 435.000/436.395/437.385
DANDE 30 Jun 09:58:10 10:05:35 34° 291° (WNW) 10:12:16 436.750
CUTE 1.7 + AOD 2 30 Jun 10:04:14 10:08:15 39° 289° (WNW) 10:12:12 437.475
SEEDS 30 Jun 10:04:25 10:08:34 53° 287° (WNW) 10:12:40 437.485
AUBIESAT-1 30 Jun 10:05:58 10:09:29 29° 103° (ESE) 10:13:11 437.475
PCSat 30 Jun 10:06:46 10:11:16 25° 43° (NE) 10:15:44 145.827
ISS 30 Jun 10:07:34 10:10:43 42° 338° (NNW) 10:13:51 145.825
TIGRISAT 30 Jun 10:14:31 10:18:32 39° 70° (ENE) 10:22:40 435.000
UNISAT 6 30 Jun 10:20:11 10:24:20 48° 71° (ENE) 10:28:37 437.425
HUMSAT D 30 Jun 10:22:51 10:24:44 12° 89° (E) 10:26:35 437.325/437.525
BEESAT 3 30 Jun 10:23:37 10:26:58 25° 44° (NE) 10:30:18 437.485
PHONESAT 2.4 30 Jun 10:24:32 10:27:11 26° 195° (SSW) 10:29:49 2401.200-2431.200
QB50P2 30 Jun 10:30:10 10:31:49 12° 60° (ENE) 10:33:27 145.880/145.840
POLYITAN 1 30 Jun 10:32:43 10:34:27 12° 60° (ENE) 10:36:09 437.675
DELFI C3 30 Jun 10:32:52 10:36:27 31° 96° (E) 10:39:59 145.870
AAUSAT CUBESAT 2 30 Jun 10:37:56 10:41:52 40° 289° (WNW) 10:45:44 437.432
Cosmos 2491 30 Jun 10:43:19 10:50:13 25° 63° (ENE) 10:57:03 435.465 / 435.565
CUBEBUG 2 30 Jun 10:44:00 10:48:25 45° 289° (WNW) 10:52:54 437.445
M-CUBED/EXP-1 PRIME 30 Jun 10:46:46 10:50:41 82° 290° (WNW) 10:54:56 437.505
ANTELSAT 30 Jun 10:59:46 11:04:04 66° 258° (WSW) 11:08:30 437.575/2403.000
ZACube-1 30 Jun 11:01:19 11:05:50 62° 286° (WNW) 11:10:22 437.345
CINEMA 3 30 Jun 11:02:38 11:04:25 12° 300° (WNW) 11:06:14 145.822/145.860
BEESAT 2 30 Jun 11:05:20 11:09:03 35° 48° (NE) 11:12:44 435.950
Oscar 11 30 Jun 11:07:27 11:11:41 50° 288° (WNW) 11:15:53 145.826/435.025
COMPASS 1 30 Jun 11:15:20 11:17:43 15° 297° (WNW) 11:20:05 437.405
BUGSAT 1 30 Jun 11:16:12 11:18:15 14° 62° (ENE) 11:20:17 437.445
HO-68 30 Jun 11:17:50 11:23:29 26° 304° (NW) 11:29:06 435.675
FUNcube-1 30 Jun 11:17:53 11:22:14 45° 289° (WNW) 11:26:35 145.935
UWE-3 30 Jun 11:27:37 11:31:22 25° 294° (WNW) 11:35:09 435.000/436.395/437.385
O/OREOS (USA 219) 30 Jun 11:33:59 11:37:23 21° 53° (NE) 11:40:46 437.305
AUBIESAT-1 30 Jun 11:40:32 11:43:53 27° 296° (WNW) 11:47:26 437.475
NANOSAT C BR1 30 Jun 11:42:23 11:46:30 59° 73° (ENE) 11:50:38 145.865
ISS 30 Jun 11:45:03 11:47:43 22° 357° (N) 11:50:22 145.825
QB50P1 30 Jun 11:46:33 11:50:43 70° 74° (ENE) 11:54:56 145.935-145.965
JAS-2 30 Jun 11:47:56 11:54:11 31° 63° (ENE) 11:59:56 435.910
PCSat 30 Jun 11:49:43 11:55:05 62° 243° (WSW) 12:00:24 145.827
POPSAT HIP 1 30 Jun 11:49:58 11:54:09 75° 76° (ENE) 11:58:21 437.405
RS-15 30 Jun 11:50:22 12:01:20 57° 113° (ESE) 12:12:54 29.354- 29.394
TIGRISAT 30 Jun 11:52:10 11:55:24 20° 268° (W) 11:58:43 435.000
HUMSAT D 30 Jun 11:56:29 12:00:47 65° 286° (WNW) 12:05:02 437.325/437.525
UNISAT 6 30 Jun 11:58:31 12:01:21 17° 269° (W) 12:04:16 437.425
BEESAT 3 30 Jun 12:01:05 12:04:44 36° 243° (WSW) 12:08:21 437.485
DUCHIFAT 1 30 Jun 12:01:52 12:06:02 89° 257° (WSW) 12:10:15 145.980
QB50P2 30 Jun 12:02:51 12:07:02 74° 258° (WSW) 12:11:16 145.880/145.840
POLYITAN 1 30 Jun 12:05:29 12:09:40 72° 259° (W) 12:13:53 437.675
AIST 2 30 Jun 12:05:30 12:07:45 14° 35° (NE) 12:09:59 435.215
UKube-1 30 Jun 12:07:36 12:08:29 11° 89° (E) 12:09:23 .
DELFI C3 30 Jun 12:08:01 12:11:09 22° 293° (WNW) 12:14:15 145.870
50 SAT 30 Jun 12:14:48 12:17:40 21° 94° (E) 12:20:30 437.505
AISAT 30 Jun 12:16:42 12:20:16 24° 94° (E) 12:23:49 437.250
